Weather History for Buffalo, WY

Change the Weather History Date:

Tuesday, July 2, 2013

  Actual Average Record
Temperature  
Mean Temperature 74 °F 68 °F  
Max Temperature 88 °F 81 °F 95 °F (2007)
Min Temperature 59 °F 54 °F 46 °F (2014)
Degree Days  
Heating Degree Days 0 2  
Month to date heating degree days 0 4  
Since 1 June heating degree days 100 167  
Since 1 July heating degree days 0 4  
Cooling Degree Days 9 4  
Month to date cooling degree days 17 8  
Year to date cooling degree days 104 66  
Since 1 June cooling degree days 94 59  
Growing Degree Days 25 (Base 50)    
Moisture  
Dew Point 44 °F    
Average Humidity 39    
Maximum Humidity 60    
Minimum Humidity 17    
Precipitation  
Precipitation 0.00 in 0.05 in 1.01 in (2009)
Month to date precipitation 0.00 0.10  
Year to date precipitation 4.08 7.90  
Sea Level Pressure  
Sea Level Pressure 30.03 in    
Wind  
Wind Speed 6 mph (WNW)    
Max Wind Speed 14 mph    
Max Gust Speed 25 mph    
Visibility 10 miles    
Events      
T = Trace of Precipitation, MM = Missing Value Source: NWS Daily Summary

Daily Weather History Graph

Daily Weather History Graph

Search for Another Location

Airport:

Trip Planner

Search our weather history database for the weather conditions in past years. The results will help you decide how hot, cold, wet, or windy it might be!

Date:

Astronomy

Jul. 02, 2013 Rise Set
Actual Time 5:27 AM MDT 8:54 PM MDT
Civil Twilight 4:50 AM MDT 9:30 PM MDT
Nautical Twilight 4:02 AM MDT 10:18 PM MDT
Astronomical Twilight 3:01 AM MDT 11:19 PM MDT
Moon 1:38 AM MDT (7/2) 4:05 PM MDT (7/2)
Length of Visible Light 16h 40m
Length of Day
15h 27m
Waning Crescent, 26% of the Moon is Illuminated
Jul 2
Waning Crescent
Jul 8
New
Jul 15
First Quarter
Jul 22
Full
Jul 29
Last Quarter

Hourly Weather History & Observations

Time (MDT) Temp. Dew Point Humidity Pressure Visibility Wind Dir Wind Speed Gust Speed Precip Events Conditions
12:53 AM 64.9 °F 48.9 °F 56% 30.10 in 10.0 mi WSW 4.6 mph - N/A   Partly Cloudy
1:53 AM 63.0 °F 48.9 °F 60% 30.09 in 10.0 mi WSW 6.9 mph - N/A   Partly Cloudy
2:53 AM 63.0 °F 48.0 °F 58% 30.08 in 10.0 mi WSW 4.6 mph - N/A   Clear
3:53 AM 62.1 °F 48.0 °F 60% 30.07 in 10.0 mi WSW 5.8 mph - N/A   Clear
4:53 AM 62.1 °F 48.0 °F 60% 30.08 in 10.0 mi West 4.6 mph - N/A   Clear
5:53 AM 62.1 °F 48.0 °F 60% 30.09 in 10.0 mi West 5.8 mph - N/A   Clear
6:53 AM 68.0 °F 48.9 °F 50% 30.08 in 10.0 mi Calm Calm - N/A   Clear
8:53 AM 75.9 °F 50.0 °F 40% 30.09 in 10.0 mi Variable 3.5 mph - N/A   Clear
9:53 AM 78.1 °F 48.9 °F 36% 30.08 in 10.0 mi SE 5.8 mph - N/A   Clear
10:53 AM 81.0 °F 46.0 °F 29% 30.07 in 10.0 mi Variable 4.6 mph - N/A   Partly Cloudy
11:53 AM 82.0 °F 45.0 °F 27% 30.07 in 10.0 mi Variable 4.6 mph - N/A   Clear
12:53 PM 84.9 °F 44.1 °F 24% 30.05 in 10.0 mi North 6.9 mph - N/A   Clear
1:53 PM 86.0 °F 41.0 °F 20% 30.04 in 10.0 mi North 11.5 mph 16.1 mph N/A   Clear
2:53 PM 87.1 °F 37.0 °F 17% 30.03 in 10.0 mi NNE 12.7 mph - N/A   Clear
3:53 PM 88.0 °F 39.0 °F 18% 30.01 in 10.0 mi NNW 11.5 mph - N/A   Clear
4:53 PM 87.1 °F 39.0 °F 18% 30.00 in 10.0 mi NE 5.8 mph - N/A   Clear
5:53 PM 87.1 °F 39.0 °F 18% 29.99 in 10.0 mi NW 8.1 mph - N/A   Clear
6:53 PM 84.9 °F 42.1 °F 22% 29.97 in 10.0 mi NNE 5.8 mph - N/A   Clear
7:53 PM 82.0 °F 41.0 °F 23% 29.96 in 10.0 mi North 5.8 mph - N/A   Clear
8:53 PM 77.0 °F 42.1 °F 29% 29.96 in 10.0 mi Calm Calm - N/A   Clear
9:53 PM 72.0 °F 43.0 °F 35% 29.97 in 10.0 mi South 4.6 mph - N/A   Clear
10:53 PM 70.0 °F 44.1 °F 39% 29.96 in 10.0 mi SSW 4.6 mph - N/A   Clear
11:53 PM 69.1 °F 43.0 °F 39% 29.94 in 10.0 mi South 4.6 mph - N/A   Clear